Regional Weather Roundup
Issued by NWS

Home | Current Version | Previous Version | Graphics & Text | Print | Product List | Glossary On
Versions: 1 2 3 4 5 6 7 8 9 10 11 12 13 14 15 16 17 18 19 20 21 22 23 24 25 26 27 28 29 30 31 32 33 34 35 36 37 38 39 40 41 42 43 44 45 46 47 48 49 50
000
ASUS43 KFSD 262210
RWRSD

WEATHER ROUNDUP FOR SOUTH DAKOTA
NATIONAL WEATHER SERVICE SIOUX FALLS SD
500 PM CDT MON JUN 26 2017

NOTE: "FAIR" INDICATES FEW OR NO CLOUDS BELOW 12,000 FEET WITH NO
SIGNIFICANT WEATHER AND/OR OBSTRUCTIONS TO VISIBILITY.


SDZ001>005-009-010-012>017-262300-
NORTHWEST AND NORTH CENTRAL SOUTH DAKOTA

CITY           SKY/WX    TMP DP  RH WIND       PRES   REMARKS
BUFFALO          N/A     81  37  20 SE14G23   30.01F
FAITH            N/A     77  40  26 S12G20    30.11F
MOBRIDGE       SUNNY     76  37  24 W8        30.12F
$$

SDZ012>016-024>037-041>051-057-063-072>074-262300-
SOUTHWEST AND SOUTH CENTRAL SOUTH DAKOTA

CITY           SKY/WX    TMP DP  RH WIND       PRES   REMARKS
RAPID CTY ARPT MOSUNNY   80  38  22 S13G23    30.10F
PIERRE         SUNNY     74  43  32 E9        30.13F
CUSTER         SUNNY     71  36  27 S13G18    30.21F
ELLSWORTH AFB  MOSUNNY   80  38  22 SE14G28   30.10
PHILIP         SUNNY     79  40  24 E13G23    30.10F
PINE RIDGE     SUNNY     79  40  24 SE9       30.13F
SPEARFISH      FAIR      77  43  29 E16G24    30.10F
WINNER         FAIR      79  38  22 E8        30.15F
$$

SDZ004>011-016>023-039-040-262300-
NORTHEAST SOUTH DAKOTA

CITY           SKY/WX    TMP DP  RH WIND       PRES   REMARKS
ABERDEEN       SUNNY     73  37  27 CALM      30.16F
WATERTOWN      SUNNY     68  38  33 VRB3      30.17F
BROOKINGS      SUNNY     69  38  32 E8        30.17F
SISSETON         N/A     73  37  27 W5        30.15F
$$

SDZ017-020-022-023-036>040-048>070-262300-
SOUTHEAST SOUTH DAKOTA

CITY           SKY/WX    TMP DP  RH WIND       PRES   REMARKS
SIOUX FALLS    MOSUNNY   71  45  39 CALM      30.16F
HURON          SUNNY     73  38  27 VRB5      30.16F
CHAMBERLAIN    SUNNY     76  36  24 N3        30.15F
MITCHELL       SUNNY     73  35  25 VRB7      30.16F
YANKTON        SUNNY     72  42  34 N8        30.16F
$$

ABBREVIATIONS USED IN REMARKS
   TC - TEMPERATURE IN CELSIUS
  WCI - WIND CHILL INDEX
   HX - HEAT INDEX
  VSB - VISIBILITY





USA.gov is the U.S. government's official web portal to all federal, state and local government web resources and services.